Weather History for La Grande, OR

Change the Weather History Date:

Wednesday, November 28, 2012

  Actual Average Record
Temperature  
Mean Temperature 44 °F -  
Max Temperature 46 °F 39 °F 53 °F (1999)
Min Temperature 42 °F 26 °F 4 °F (1979)
Degree Days  
Heating Degree Days 21    
Moisture  
Dew Point 27 °F    
Average Humidity 49    
Maximum Humidity 57    
Minimum Humidity 46    
Precipitation  
Precipitation 0.00 in - - ()
Sea Level Pressure  
Sea Level Pressure 29.91 in    
Wind  
Wind Speed 17 mph (South)    
Max Wind Speed 26 mph    
Max Gust Speed 37 mph    
Visibility 10 miles    
Events      
Averages and records for this station are not official NWS values.
T = Trace of Precipitation, MM = Missing Value Source: NWS Daily Summary

Daily Weather History Graph

Daily Weather History Graph

Search for Another Location

Airport:

Trip Planner

Search our weather history database for the weather conditions in past years. The results will help you decide how hot, cold, wet, or windy it might be!

Date:

Astronomy

Nov. 28, 2012 Rise Set
Actual Time 7:08 AM PST 4:12 PM PST
Civil Twilight 6:35 AM PST 4:45 PM PST
Nautical Twilight 5:58 AM PST 5:21 PM PST
Astronomical Twilight 5:22 AM PST 5:57 PM PST
Moon 4:30 PM PST (11/28) 7:09 AM PST (11/28)
Length of Visible Light 10h 10m
Length of Day
9h 03m
Full, 100% of the Moon is Illuminated
Nov 28
Full
Dec 6
Last Quarter
Dec 13
New
Dec 19
First Quarter
Dec 28
Full

Hourly Weather History & Observations

Time (PST) Temp. Windchill Dew Point Humidity Pressure Visibility Wind Dir Wind Speed Gust Speed Precip Events Conditions
12:15 AM 44.6 °F 35.9 °F 24.8 °F 46% 30.05 in 10.0 mi South 23.0 mph 31.1 mph N/A   Clear
12:35 AM 44.6 °F 40.2 °F 26.6 °F 49% 30.06 in 10.0 mi SSE 8.1 mph 33.4 mph N/A   Clear
12:55 AM 44.6 °F 38.1 °F 24.8 °F 46% 30.06 in 10.0 mi SSE 13.8 mph 18.4 mph N/A   Clear
1:15 AM 44.6 °F 40.2 °F 24.8 °F 46% 30.05 in 10.0 mi SSE 8.1 mph - N/A   Clear
1:35 AM 42.8 °F 35.4 °F 24.8 °F 49% 30.05 in 10.0 mi SSE 15.0 mph - N/A   Clear
1:55 AM 44.6 °F 38.1 °F 24.8 °F 46% 30.05 in 10.0 mi South 13.8 mph 21.9 mph N/A   Clear
2:15 AM 44.6 °F 35.9 °F 24.8 °F 46% 30.04 in 10.0 mi South 23.0 mph 28.8 mph N/A   Clear
2:35 AM 44.6 °F 38.8 °F 26.6 °F 49% 30.03 in 10.0 mi South 11.5 mph 28.8 mph N/A   Clear
2:55 AM 44.6 °F 35.9 °F 26.6 °F 49% 30.03 in 10.0 mi South 23.0 mph 29.9 mph N/A   Clear
3:15 AM 44.6 °F 35.3 °F 26.6 °F 49% 30.02 in 10.0 mi South 26.5 mph 34.5 mph N/A   Clear
3:35 AM 44.6 °F 36.1 °F 26.6 °F 49% 30.03 in 10.0 mi South 21.9 mph 32.2 mph N/A   Clear
3:55 AM 44.6 °F 36.4 °F 26.6 °F 49% 30.02 in 10.0 mi South 20.7 mph 27.6 mph N/A   Clear
4:15 AM 44.6 °F 37.2 °F 26.6 °F 49% 30.01 in 10.0 mi South 17.3 mph 24.2 mph N/A   Clear
4:35 AM 44.6 °F 37.8 °F 26.6 °F 49% 30.00 in 10.0 mi South 15.0 mph 24.2 mph N/A   Clear
4:55 AM 44.6 °F 36.1 °F 26.6 °F 49% 30.00 in 10.0 mi South 21.9 mph 27.6 mph N/A   Clear
5:15 AM 44.6 °F 35.9 °F 26.6 °F 49% 30.00 in 10.0 mi SE 23.0 mph 28.8 mph N/A   Clear
5:35 AM 44.6 °F 35.5 °F 26.6 °F 49% 30.00 in 10.0 mi SE 25.3 mph 35.7 mph N/A   Clear
5:55 AM 44.6 °F 36.9 °F 26.6 °F 49% 30.00 in 10.0 mi SSE 18.4 mph 29.9 mph N/A   Clear
6:15 AM 44.6 °F 36.4 °F 26.6 °F 49% 29.98 in 10.0 mi South 20.7 mph 29.9 mph N/A   Clear
6:35 AM 44.6 °F 36.9 °F 26.6 °F 49% 29.98 in 10.0 mi South 18.4 mph 25.3 mph N/A   Clear
6:55 AM 44.6 °F 36.9 °F 26.6 °F 49% 29.98 in 10.0 mi South 18.4 mph 25.3 mph N/A   Partly Cloudy
7:15 AM 42.8 °F 36.6 °F 26.6 °F 53% 29.98 in 10.0 mi South 11.5 mph 26.5 mph N/A   Clear
7:35 AM 42.8 °F 33.8 °F 26.6 °F 53% 29.97 in 10.0 mi South 21.9 mph 28.8 mph N/A   Clear
7:55 AM 44.6 °F 36.4 °F 26.6 °F 49% 29.97 in 10.0 mi South 20.7 mph 28.8 mph N/A   Clear
8:15 AM 44.6 °F 36.1 °F 26.6 °F 49% 29.96 in 10.0 mi South 21.9 mph 33.4 mph N/A   Clear
8:35 AM 44.6 °F 36.4 °F 26.6 °F 49% 29.95 in 10.0 mi South 20.7 mph 27.6 mph N/A   Clear
8:55 AM 44.6 °F 37.2 °F 26.6 °F 49% 29.94 in 10.0 mi South 17.3 mph 32.2 mph N/A   Clear
9:15 AM 44.6 °F 36.6 °F 26.6 °F 49% 29.93 in 10.0 mi SE 19.6 mph 35.7 mph N/A   Clear
9:35 AM 46.4 °F 37.7 °F 26.6 °F 46% 29.90 in 10.0 mi ESE 26.5 mph 36.8 mph N/A   Clear
9:55 AM 46.4 °F 40.7 °F 26.6 °F 46% 29.92 in 10.0 mi SE 12.7 mph 31.1 mph N/A   Clear
10:35 AM 46.4 °F 40.7 °F 26.6 °F 46% 29.93 in 10.0 mi South 12.7 mph 34.5 mph N/A   Scattered Clouds
10:55 AM 46.4 °F 39.8 °F 26.6 °F 46% 29.92 in 10.0 mi South 16.1 mph 21.9 mph N/A   Overcast
11:15 AM 46.4 °F 40.1 °F 26.6 °F 46% 29.90 in 10.0 mi South 15.0 mph 28.8 mph N/A   Overcast
11:35 AM 44.6 °F 37.8 °F 26.6 °F 49% 29.90 in 10.0 mi South 15.0 mph 29.9 mph N/A   Overcast
11:55 AM 44.6 °F 36.6 °F 26.6 °F 49% 29.88 in 10.0 mi South 19.6 mph 26.5 mph N/A   Overcast
12:15 PM 46.4 °F 40.7 °F 26.6 °F 46% 29.87 in 10.0 mi SSE 12.7 mph 32.2 mph N/A   Overcast
12:35 PM 46.4 °F 41.1 °F 26.6 °F 46% 29.86 in 10.0 mi SSE 11.5 mph 21.9 mph N/A   Overcast
12:55 PM 46.4 °F 39.8 °F 26.6 °F 46% 29.86 in 10.0 mi ESE 16.1 mph 27.6 mph N/A   Overcast
1:15 PM 44.6 °F 37.4 °F 26.6 °F 49% 29.85 in 10.0 mi ESE 16.1 mph 25.3 mph N/A   Overcast
1:35 PM 44.6 °F 37.8 °F 26.6 °F 49% 29.84 in 10.0 mi SSE 15.0 mph 25.3 mph N/A   Overcast
1:55 PM 46.4 °F 39.5 °F 26.6 °F 46% 29.84 in 10.0 mi South 17.3 mph 26.5 mph N/A   Overcast
2:15 PM 46.4 °F 40.4 °F 26.6 °F 46% 29.83 in 10.0 mi South 13.8 mph - N/A   Overcast
2:35 PM 46.4 °F 41.1 °F 26.6 °F 46% 29.84 in 10.0 mi South 11.5 mph - N/A   Overcast
2:55 PM 46.4 °F 40.7 °F 26.6 °F 46% 29.84 in 10.0 mi South 12.7 mph 23.0 mph N/A   Overcast
3:15 PM 46.4 °F 40.4 °F 26.6 °F 46% 29.82 in 10.0 mi SSE 13.8 mph 23.0 mph N/A   Overcast
3:35 PM 44.6 °F 37.8 °F 26.6 °F 49% 29.82 in 10.0 mi South 15.0 mph 18.4 mph N/A   Mostly Cloudy
3:55 PM 44.6 °F 39.7 °F 26.6 °F 49% 29.81 in 10.0 mi South 9.2 mph - N/A   Mostly Cloudy
4:15 PM 44.6 °F 39.2 °F 26.6 °F 49% 29.81 in 10.0 mi SSE 10.4 mph - N/A   Overcast
4:35 PM 44.6 °F 36.4 °F 26.6 °F 49% 29.81 in 10.0 mi South 20.7 mph 26.5 mph N/A   Overcast
4:55 PM 46.4 °F 39.0 °F 26.6 °F 46% 29.80 in 10.0 mi South 19.6 mph 24.2 mph N/A   Overcast
5:15 PM 46.4 °F 39.8 °F 26.6 °F 46% 29.81 in 10.0 mi South 16.1 mph 27.6 mph N/A   Overcast
5:35 PM 46.4 °F 40.1 °F 26.6 °F 46% 29.81 in 10.0 mi South 15.0 mph 25.3 mph N/A   Scattered Clouds
5:55 PM 46.4 °F 40.7 °F 26.6 °F 46% 29.80 in 10.0 mi South 12.7 mph 18.4 mph N/A   Scattered Clouds
6:15 PM 46.4 °F 39.0 °F 26.6 °F 46% 29.82 in 10.0 mi South 19.6 mph 23.0 mph N/A   Overcast
6:35 PM 46.4 °F 39.8 °F 26.6 °F 46% 29.81 in 10.0 mi South 16.1 mph - N/A   Overcast
6:55 PM 46.4 °F 40.1 °F 28.4 °F 50% 29.82 in 10.0 mi South 15.0 mph 20.7 mph N/A   Overcast
7:15 PM 46.4 °F 38.3 °F 28.4 °F 50% 29.83 in 10.0 mi South 23.0 mph 28.8 mph N/A   Overcast
7:35 PM 46.4 °F 39.0 °F 28.4 °F 50% 29.83 in 10.0 mi South 19.6 mph 24.2 mph N/A   Overcast
7:55 PM 46.4 °F 40.1 °F 28.4 °F 50% 29.84 in 10.0 mi South 15.0 mph 24.2 mph N/A   Overcast
8:15 PM 46.4 °F 40.1 °F 28.4 °F 50% 29.84 in 10.0 mi South 15.0 mph 20.7 mph N/A   Overcast
8:35 PM 46.4 °F 39.2 °F 30.2 °F 53% 29.84 in 10.0 mi South 18.4 mph 23.0 mph N/A   Overcast
8:55 PM 46.4 °F 39.5 °F 28.4 °F 50% 29.85 in 10.0 mi South 17.3 mph - N/A   Overcast
9:15 PM 46.4 °F 40.1 °F 30.2 °F 53% 29.86 in 10.0 mi South 15.0 mph 18.4 mph N/A   Overcast
9:35 PM 46.4 °F 41.5 °F 30.2 °F 53% 29.87 in 10.0 mi South 10.4 mph - N/A   Overcast
9:55 PM 46.4 °F 41.5 °F 30.2 °F 53% 29.88 in 10.0 mi South 10.4 mph - N/A   Overcast
10:15 PM 46.4 °F 41.5 °F 30.2 °F 53% 29.88 in 10.0 mi SSE 10.4 mph - N/A   Overcast
10:35 PM 46.4 °F 42.9 °F 30.2 °F 53% 29.87 in 10.0 mi South 6.9 mph - N/A   Overcast
10:55 PM 46.4 °F 42.4 °F 30.2 °F 53% 29.88 in 10.0 mi South 8.1 mph - N/A   Mostly Cloudy
11:15 PM 46.4 °F 40.4 °F 30.2 °F 53% 29.89 in 10.0 mi South 13.8 mph - N/A   Mostly Cloudy
11:35 PM 46.4 °F 40.4 °F 32.0 °F 57% 29.89 in 10.0 mi South 13.8 mph 19.6 mph N/A   Overcast
11:55 PM 46.4 °F 39.2 °F 32.0 °F 57% 29.87 in 10.0 mi South 18.4 mph 21.9 mph N/A   Scattered Clouds